Home   Weather   Inuvik   Past weeks

Flag for Canada Past Weather in Inuvik, Northwest Territories, Canada — Yesterday and Last 2 Weeks

Now
63 °F

Mostly cloudy.


Feels Like: 63 °F
Forecast: 49 / 62 °F
Wind: 10 mph from Northwest

Location: Inuvik

Current Time: Jun 25, 2017 at 9:44:26 pm

Latest Report: Jun 25, 2017 at 9:00 pm


Visibility: 15 mi

Pressure: 29.84 "Hg

Humidity: 73%

Dew Point: 54 °F

Location of InuvikLocation

Past Weather in Inuvik — Graph

°F

Inuvik Temperature Yesterday

Maximum temperature yesterday: 72 °F (at 12:00 am)
Minimum temperature yesterday: 54 °F (at 7:00 am)
Average temperature yesterday: 65 °F

High & Low Weather Summary for the Past Weeks

 TemperatureHumidityPressure
High79 °F (Jun 23, 8:00 pm)100% (Jun 16, 6:40 am)30.23 "Hg (Jun 16, 6:40 am)
Low28 °F (Jun 11, 4:00 am)19% (Jun 15, 4:00 pm)29.54 "Hg (Jun 16, 6:00 pm)
Average56 °F56%29.90 "Hg
* Reported Jun 10 8:00 pm — Jun 25 8:00 pm, Inuvik. Weather by CustomWeather, © 2017

Note: Actual official high and low records may vary slightly from our data, if they occured in-between our weather recording intervals... More about our weather records

Advertising

Inuvik Weather History for the Previous 24 Hours

Scroll right to see more
 ConditionsComfort  
Time TempWeatherWind HumidityBarometerVisibility
8:00 pm
Sun, Jun 25
63 °FMostly cloudy.8 mph73%29.84 "Hg15 mi
7:00 pm64 °FMostly cloudy.14 mph64%29.85 "Hg15 mi
6:00 pm64 °FCloudy.5 mph73%29.84 "Hg15 mi
5:00 pm64 °FSprinkles. Mostly cloudy.10 mph73%29.83 "Hg15 mi
4:00 pm68 °FScattered showers. Mostly cloudy.9 mph56%29.85 "Hg15 mi
3:00 pm68 °FScattered showers. Partly sunny.7 mph69%29.85 "Hg15 mi
2:39 pm68 °FPartly sunny.7 mph69%29.85 "Hg15 mi
2:00 pm68 °FSprinkles. Partly sunny.8 mph69%29.86 "Hg15 mi
1:00 pm72 °FBroken clouds.2 mph53%29.86 "Hg15 mi
12:00 pm73 °FPartly sunny.7 mph50%29.88 "Hg15 mi
11:00 am66 °FBroken clouds.3 mph64%29.89 "Hg15 mi
10:00 am66 °FPartly sunny.5 mph64%29.90 "Hg15 mi
9:00 am64 °FPartly sunny.5 mph64%29.91 "Hg15 mi
8:00 am64 °FScattered showers. Partly sunny.5 mph64%29.92 "Hg15 mi
7:00 am63 °FScattered clouds.5 mph64%29.92 "Hg15 mi
6:00 am63 °FScattered showers. Broken clouds.8 mph64%29.92 "Hg15 mi
5:00 am63 °FScattered showers. Broken clouds.10 mph59%29.92 "Hg15 mi
4:00 am63 °FScattered showers. Partly sunny.7 mph59%29.93 "Hg15 mi
3:00 am64 °FScattered showers. Partly sunny.9 mph52%29.93 "Hg15 mi
2:00 am64 °FScattered showers. Partly sunny.12 mph56%29.94 "Hg15 mi
1:00 am64 °FScattered showers. Partly sunny.12 mph56%29.95 "Hg15 mi
12:00 am66 °FScattered clouds.10 mph52%29.95 "Hg15 mi
11:00 pm
Sat, Jun 24
70 °FScattered clouds.12 mph46%29.96 "Hg15 mi
10:00 pm70 °FScattered clouds.12 mph46%29.97 "Hg15 mi
9:00 pm72 °FScattered clouds.12 mph44%29.97 "Hg15 mi
Weather by CustomWeather, © 2017

See weather overviewHow to use our weather pages